User: anonymous   Login
Location: Unspecified
(0.0000°N, 0.0000°E)
Time: 01:12:36
(UTC+00:00)
Language:

Vanguard 1 - Orbit

View from above orbital plane
View from above orbital plane
View from above satellite
View from above satellite

Ground track
Ground track

The orbit data is extracted from the following two-line orbital elements,

1     5U 58002B   18348.45270305 -.00000099  00000-0 -10283-3 0  9997
2     5  34.2433 125.4212 1846440  33.1241 337.2449 10.84799440145518
Epoch (UTC): 14 December 2018 10:51:53
Eccentricity: 0.1846440
inclination: 34.2433°
perigee height: 650 km
apogee height: 3833 km
right ascension of ascending node: 125.4212°
argument of perigee: 33.1241°
revolutions per day: 10.84799440
mean anomaly at epoch: 337.2449°
orbit number at epoch: 14551

The dashed part of the orbit path shows where the satellite is in the earth's shadow,  

DLR